K7JKM Weather Reports


time (UTC)temp
C
wind
direction
speed
KPH
gust
KPH
rain 1hr
cm
rain 24hr
cm
rain mn
cm
humidity
%
barometer
mb
20260831001527 25 302 0.0 1.6 0.00 0.00 0.00 34 1016.7
20260831000031 24 16 0.0 8.0 0.00 0.00 0.00 35 1016.9
20260830234535 24 13 0.0 4.8 0.00 0.00 0.00 35 1017.1
20260830233018 24 21 0.0 4.8 0.00 0.00 0.00 35 1017.3
20260830231516 24 18 1.6 8.0 0.00 0.00 0.00 34 1017.4
20260830230011 24 8 0.0 4.8 0.00 0.00 0.00 34 1017.5
20260830224532 23 77 0.0 6.4 0.00 0.00 0.00 35 1017.7
20260830223030 23 310 0.0 6.4 0.00 0.00 0.00 35 1018.1
20260830221543 23 317 3.2 11.3 0.00 0.00 0.00 33 1018.3
20260830220028 22 70 3.2 8.0 0.00 0.00 0.00 35 1018.5
20260830214523 23 49 1.6 6.4 0.00 0.00 0.00 35 1018.7
20260830213019 22 290 1.6 8.0 0.00 0.00 0.00 36 1019.0
20260830211518 22 335 0.0 14.5 0.00 0.00 0.00 37 1019.3
20260830210012 22 328 1.6 4.8 0.00 0.00 0.00 38 1019.3
20260830204511 21 315 0.0 8.0 0.00 0.00 0.00 38 1019.4
20260830203008 21 43 0.0 8.0 0.00 0.00 0.00 37 1019.6
20260830201504 22 29 0.0 4.8 0.00 0.00 0.00 39 1019.7
20260830200010 21 47 0.0 3.2 0.00 0.00 0.00 38 1019.9
20260830194527 20 319 0.0 8.0 0.00 0.00 0.00 40 1020.1
20260830193021 20 346 1.6 3.2 0.00 0.00 0.00 41 1020.3
20260830191518 20 353 1.6 8.0 0.00 0.00 0.00 44 1020.4
20260830190037 20 11 0.0 6.4 0.00 0.00 0.00 45 1020.6
20260830184512 19 332 1.6 8.0 0.00 0.00 0.00 45 1020.7
20260830183009 19 51 0.0 1.6 0.00 0.00 0.00 47 1020.7
20260830181508 18 313 1.6 11.3 0.00 0.00 0.00 51 1020.9
20260830180035 17 311 3.2 8.0 0.00 0.00 0.00 59 1020.9
20260830174530 17 302 0.0 6.4 0.00 0.00 0.00 62 1020.9
20260830173023 16 288 0.0 6.4 0.00 0.00 0.00 64 1021.0
20260830171520 16 340 0.0 3.2 0.00 0.00 0.00 65 1021.1
20260830170016 15 312 0.0 1.6 0.00 0.00 0.00 67 1021.1
20260830164512 15 312 0.0 4.8 0.00 0.00 0.00 69 1021.0
20260830163008 13 322 0.0 4.8 0.00 0.00 0.00 71 1021.3
20260830161533 13 295 0.0 1.6 0.00 0.00 0.00 72 1021.4
20260830160036 12 305 0.0 3.2 0.00 0.00 0.00 73 1021.4
20260830154527 12 306 0.0 3.2 0.00 0.00 0.00 74 1021.4
20260830153029 11 274 0.0 0.0 0.00 0.00 0.00 75 1021.5
20260830151526 11 271 0.0 1.6 0.00 0.00 0.00 77 1021.5
20260830150020 10 272 0.0 1.6 0.00 0.00 0.00 78 1021.7
20260830144516 10 237 0.0 1.6 0.00 0.00 0.00 79 1021.7
20260830143036 9 236 0.0 1.6 0.00 0.00 0.00 80 1021.7
20260830141535 8 230 0.0 0.0 0.00 0.00 0.00 80 1021.7
20260830140034 7 230 0.0 0.0 0.00 0.00 0.00 79 1021.7
20260830134537 7 230 0.0 0.0 0.00 0.00 0.00 78 1021.6
20260830133028 8 230 0.0 0.0 0.00 0.00 0.00 78 1021.4
20260830131528 8 230 0.0 0.0 0.00 0.00 0.00 78 1021.3
20260830130034 8 230 0.0 0.0 0.00 0.00 0.00 78 1021.3
20260830124532 8 230 0.0 0.0 0.00 0.00 0.00 77 1021.1
20260830123034 8 230 0.0 0.0 0.00 0.00 0.00 78 1020.9
20260830121537 8 230 0.0 0.0 0.00 0.00 0.00 72 1021.0
20260830120005 8 230 0.0 0.0 0.00 0.00 0.00 71 1021.0
20260830114506 8 230 0.0 0.0 0.00 0.00 0.00 71 1021.0
20260830113004 8 230 0.0 0.0 0.00 0.00 0.00 70 1020.9
20260830111504 8 230 0.0 0.0 0.00 0.00 0.00 70 1020.9
20260830110022 8 230 0.0 0.0 0.00 0.00 0.00 70 1021.0
20260830104542 8 230 0.0 0.0 0.00 0.00 0.00 69 1020.9
20260830103015 8 230 0.0 0.0 0.00 0.00 0.00 69 1020.9
20260830101514 9 230 0.0 0.0 0.00 0.00 0.00 68 1020.9
20260830100009 9 230 0.0 0.0 0.00 0.00 0.00 68 1020.9
20260830094503 10 230 0.0 0.0 0.00 0.00 0.00 68 1020.9
20260830093004 10 230 0.0 0.0 0.00 0.00 0.00 68 1020.9
20260830091528 10 230 0.0 1.6 0.00 0.00 0.00 70 1020.9
20260830090027 10 229 0.0 0.0 0.00 0.00 0.00 68 1021.0
20260830084521 10 230 0.0 0.0 0.00 0.00 0.00 68 1021.0
20260830083033 10 230 0.0 0.0 0.00 0.00 0.00 67 1021.0
20260830081512 10 229 0.0 0.0 0.00 0.00 0.00 67 1021.0
20260830080012 10 229 0.0 0.0 0.00 0.00 0.00 68 1020.9
20260830074510 11 229 0.0 0.0 0.00 0.00 0.00 67 1020.9
20260830073030 11 230 0.0 0.0 0.00 0.00 0.00 66 1020.9
20260830071528 11 230 0.0 0.0 0.00 0.00 0.00 66 1020.9
20260830070026 12 230 0.0 0.0 0.00 0.00 0.00 66 1021.0
20260830064521 12 229 0.0 0.0 0.00 0.00 0.00 65 1021.0
20260830063020 13 229 0.0 0.0 0.00 0.00 0.00 64 1020.9
20260830061513 13 229 0.0 0.0 0.00 0.00 0.00 63 1020.8
20260830060015 13 250 0.0 1.6 0.00 0.00 0.00 62 1020.9
20260830054539 13 245 0.0 0.0 0.00 0.00 0.00 61 1020.8
20260830053032 14 244 0.0 1.6 0.00 0.00 0.00 61 1020.8
20260830051530 14 281 0.0 0.0 0.00 0.00 0.00 59 1020.8
20260830050025 15 219 0.0 0.0 0.00 0.00 0.00 58 1020.9
20260830044524 15 290 0.0 1.6 0.00 0.00 0.00 56 1020.9
20260830043021 15 299 0.0 1.6 0.00 0.00 0.00 54 1020.8
20260830041521 16 300 0.0 1.6 0.00 0.00 0.00 53 1020.7
20260830040043 16 171 0.0 1.6 0.00 0.00 0.00 51 1020.4
20260830034544 16 328 0.0 4.8 0.00 0.00 0.00 50 1020.2
20260830033032 17 108 0.0 9.7 0.00 0.00 0.00 48 1020.0
20260830031503 17 305 0.0 8.0 0.00 0.00 0.00 45 1019.9
20260830030004 18 337 0.0 6.4 0.00 0.00 0.00 43 1019.7
20260830024504 18 314 1.6 8.0 0.00 0.00 0.00 40 1019.6
20260830023005 19 358 0.0 6.4 0.00 0.00 0.00 39 1019.6
20260830021506 20 248 0.0 4.8 0.00 0.00 0.00 39 1019.6
20260830020003 20 4 1.6 9.7 0.00 0.00 0.00 36 1019.5
20260830014504 20 265 0.0 8.0 0.00 0.00 0.00 35 1019.5
20260830013007 21 290 0.0 9.7 0.00 0.00 0.00 34 1019.3
20260830011504 21 307 0.0 9.7 0.00 0.00 0.00 35 1019.3
20260830010010 21 323 1.6 11.3 0.00 0.00 0.00 34 1019.3
20260830004507 22 296 1.6 9.7 0.00 0.00 0.00 33 1019.4
20260830003008 22 15 0.0 12.9 0.00 0.00 0.00 35 1019.3